STARLINK-32583, 61955

Orbit data source: Space-Track

STARLINK-32583, 61955 is a payload satellite owned by SpaceX/Seattle (US) in LEO that was launched on Thu, 14 Nov 2024 UTC via an FALCON 9 launch vehicle from the Air Force Western Test Range (AFWTR). Payload-class satellites include a variety of spacecraft equipped with specific instruments for various scientific and technological missions. These include communications satellites like Starlink; space stations such as the ISS; scientific satellites like the Hubble; Earth observation satellites from companies like Planet Labs, Umbra, and HawkEye 360; GPS; miniature CubeSats for education and research; and military/defense satellites.

Loading next visibility...
Identifier
61955, 2024-209S
Orbit
LEO
Country
Flag of USUS
Related business
Manufacturer
SpaceX/Seattle
Mission
Operational Commercial Communications
Bus & Motor
STARLINK V2M, Unknown motor
Mass
730 kg wet, ~700 kg dry
Launch date (UTC)
2024-11-14 (2 years ago)
Launch vehicle
FALCON 9
Launch site
Air Force Western Test Range (AFWTR)
Object type
Payload
Rocket body
Debris
Shape & HBR
Box + 2 Pan, 17.7 m
Radar Cross Section
33.884 m², Large (>1 m²)

Expand to show TLE details & history
Last TLE update: 13 hours ago

TLE from 13 hours ago
0 STARLINK-32583
1 61955U 24209S   26171.29310549  .00044226  00000-0  79783-3 0  9998
2 61955  53.1603  20.2902 0001155  96.1293 263.9848 15.49341443 90695
Epoch: 2026-06-20T07:02Z
TLE epoch observation values (Epoch: 2026-06-20T07:02:04.314Z)
Latitude
0.00001°
Longitude
6.26242°
Altitude
419.641 km
Speed
7.661 km/s
True Right ascension
01h 21m 09s
True Declination
0° 00' 00"
Sunlit
Object was in daylight at epoch
Visualization orbit readout
Latitude
Unknown
Longitude
Unknown
Altitude
Unknown
Speed
Unknown
Apparent Right ascension
Unknown
Apparent Declination
Unknown
Sunlit
N/A
Visualization observer readout
Local Sidereal Time
07:17:42
Azimuth
Unknown
Elevation
Unknown
Doppler factor
Unknown
Orbital elements
Apogee altitude
419.695 km
Perigee altitude
418.125 km
Semi-major axis
6,797.047 km
Eccentricity
0.00012
Inclination
53.1603°
RAAN
20.2902°
Arg. of periapsis
96.1293°
True anomaly
263.97164°
Mean anomaly
263.9848°
Eccentric anomaly
263.97822°
Mean motion
3.87314 °/min
Orbital period
92.95 mins
BSTAR
0.00079783
Loading maneuver chart data...
Computing Atmospheric mass density...
Loading historical data...
Loading historical data...
Loading historical data...
Loading historical data...
Loading historical data...
Loading historical data...
Loading historical data...

Documentation

Showing up to 5 results
|